カタログに戻る

FENGYUN 1C DEB

運用中PO
NORAD 31261·DEBRIS·🇨🇳 China

打ち上げ May 10, 1999 から Taiyuan Satellite Launch Center

Loading…

次のパス (今後24時間)

TLE

最新Source: Space-Track

元期: Sep 13, 2026, 09:01 UTC

1 31261U 99025BMT 26256.37625064  .00001552  00000-0  48517-3 0  9993
2 31261  99.0413 230.0419 0050247 140.2439 220.2448 14.41564056 13014

AllMySatでFENGYUN 1C DEBをリアルタイム追跡

Download on the App Store